Gustavus, AK

7:57 AM AKST on February 27, 2017 (GMT -0900)
Gustavus

Weather History for PAGS - March, 2014

Change the Weather History Date:

Friday, March 14, 2014

  Actual Average Record
Temperature  
Mean Temperature 38 °F -  
Max Temperature 44 °F 41 °F 48 °F (1998)
Min Temperature 33 °F 27 °F 5 °F (2002)
Degree Days  
Heating Degree Days 26    
Moisture  
Dew Point 34 °F    
Average Humidity 86    
Maximum Humidity 100    
Minimum Humidity 70    
Precipitation  
Precipitation 0.00 in - - ()
Sea Level Pressure  
Sea Level Pressure 29.55 in    
Wind  
Wind Speed 7 mph (South)    
Max Wind Speed 18 mph    
Max Gust Speed 25 mph    
Visibility 10 miles    
Events      
Averages and records for this station are not official NWS values.
T = Trace of Precipitation, MM = Missing Value Source: NWS Daily Summary

Daily Weather History Graph

Daily Weather History Graph

Search for Another Location

Airport or City:

Trip Planner

Search our weather history database for the weather conditions in past years. The results will help you decide how hot, cold, wet, or windy it might be!

Date:

Astronomy

Mar. 14, 2014 Rise Set
Actual Time 7:21 AM AKDT 7:03 PM AKDT
Civil Twilight 6:41 AM AKDT 7:43 PM AKDT
Nautical Twilight 5:55 AM AKDT 8:30 PM AKDT
Astronomical Twilight 5:06 AM AKDT 9:19 PM AKDT
Moon 5:20 PM AKDT (3/14) 6:23 AM AKDT (3/14)
Length of Visible Light 13h 01m
Length of Day
11h 42m
Waxing Gibbous, 97% of the Moon is Illuminated
Mar 14
Waxing Gibbous
Mar 16
Full
Mar 23
Last Quarter
Mar 30
New
Apr 7
First Quarter

Hourly Weather History & Observations

Time (AKDT) Temp. Windchill Dew Point Humidity Pressure Visibility Wind Dir Wind Speed Gust Speed Precip Events Conditions
12:16 AM 35.6 °F 29.9 °F 33.8 °F 93% 29.44 in 10.0 mi NW 6.9 mph - N/A   Overcast
12:36 AM 35.6 °F 29.2 °F 33.8 °F 93% 29.43 in 10.0 mi NNW 8.1 mph - N/A   Scattered Clouds
12:56 AM 35.6 °F 28.0 °F 33.8 °F 93% 29.41 in 10.0 mi NNW 10.4 mph - N/A   Mostly Cloudy
1:16 AM 35.6 °F 28.6 °F 33.8 °F 93% 29.39 in 10.0 mi NNW 9.2 mph - N/A   Overcast
1:36 AM 35.6 °F 28.6 °F 33.8 °F 93% 29.38 in 10.0 mi NNW 9.2 mph - N/A   Overcast
1:56 AM 35.6 °F 29.2 °F 33.8 °F 93% 29.37 in 10.0 mi NNW 8.1 mph - N/A   Overcast
2:16 AM 37.4 °F 30.8 °F 33.8 °F 87% 29.36 in 10.0 mi NNW 9.2 mph - N/A   Overcast
2:36 AM 35.6 °F 29.2 °F 33.8 °F 93% 29.35 in 10.0 mi NNW 8.1 mph - N/A   Overcast
2:56 AM 35.6 °F 29.9 °F 33.8 °F 93% 29.34 in 10.0 mi NNW 6.9 mph - N/A   Overcast
3:16 AM 35.6 °F 29.9 °F 33.8 °F 93% 29.34 in 10.0 mi NNW 6.9 mph - N/A   Overcast
4:36 AM 35.6 °F 32.8 °F 33.8 °F 93% 29.35 in 10.0 mi NNW 3.5 mph - N/A   Overcast
4:56 AM 35.6 °F 32.8 °F 33.8 °F 93% 29.35 in 10.0 mi North 3.5 mph - N/A   Overcast
5:16 AM 35.6 °F 31.7 °F 33.8 °F 93% 29.34 in 10.0 mi North 4.6 mph - N/A   Overcast
5:36 AM 37.4 °F 33.8 °F 33.8 °F 87% 29.34 in 10.0 mi NW 4.6 mph - N/A   Overcast
5:56 AM 37.4 °F 32.8 °F 33.8 °F 87% 29.35 in 10.0 mi NW 5.8 mph - N/A   Overcast
6:16 AM 35.6 °F - 33.8 °F 93% 29.35 in 10.0 mi Calm Calm - N/A   Overcast
6:36 AM 37.4 °F 34.9 °F 33.8 °F 87% 29.36 in 10.0 mi NW 3.5 mph - N/A   Overcast
6:56 AM 35.6 °F - 33.8 °F 93% 29.36 in 10.0 mi Calm Calm - N/A   Overcast
7:16 AM 35.6 °F - 33.8 °F 93% 29.36 in 10.0 mi Calm Calm - N/A   Overcast
7:36 AM 35.6 °F - 33.8 °F 93% 29.37 in 10.0 mi Calm Calm - N/A   Overcast
7:56 AM 35.6 °F - 33.8 °F 93% 29.37 in 10.0 mi Calm Calm - N/A   Overcast
8:16 AM 35.6 °F - 33.8 °F 93% 29.38 in 10.0 mi Calm Calm - N/A   Overcast
8:36 AM 35.6 °F - 33.8 °F 93% 29.39 in 10.0 mi Calm Calm - N/A   Overcast
8:56 AM 35.6 °F - 33.8 °F 93% 29.40 in 10.0 mi Calm Calm - N/A   Overcast
9:16 AM 35.6 °F - 33.8 °F 93% 29.41 in 10.0 mi Calm Calm - N/A   Overcast
9:36 AM 35.6 °F - 33.8 °F 93% 29.41 in 10.0 mi Calm Calm - N/A   Overcast
9:56 AM 35.6 °F - 33.8 °F 93% 29.42 in 10.0 mi Calm Calm - N/A   Overcast
10:16 AM 35.6 °F - 35.6 °F 100% 29.43 in 10.0 mi Calm Calm - N/A   Overcast
10:36 AM 37.4 °F - 35.6 °F 93% 29.44 in 10.0 mi Calm Calm - N/A   Overcast
10:56 AM 37.4 °F - 35.6 °F 93% 29.45 in 10.0 mi Calm Calm - N/A   Overcast
11:16 AM 39.2 °F 32.5 °F 35.6 °F 87% 29.46 in 10.0 mi SE 10.4 mph - N/A   Overcast
11:36 AM 41.0 °F 33.9 °F 35.6 °F 81% 29.47 in 10.0 mi ESE 12.7 mph 18.4 mph N/A   Overcast
11:56 AM 42.8 °F 36.6 °F 37.4 °F 81% 29.47 in 10.0 mi SE 11.5 mph 19.6 mph N/A   Overcast
12:16 PM 42.8 °F 35.4 °F 35.6 °F 76% 29.48 in 10.0 mi SE 15.0 mph 25.3 mph N/A   Overcast
12:36 PM 42.8 °F 35.8 °F 35.6 °F 76% 29.49 in 10.0 mi SE 13.8 mph - N/A   Mostly Cloudy
12:56 PM 42.8 °F 35.4 °F 35.6 °F 76% 29.50 in 10.0 mi SE 15.0 mph 18.4 mph N/A   Overcast
1:16 PM 44.6 °F 37.4 °F 35.6 °F 71% 29.51 in 10.0 mi SSE 16.1 mph 19.6 mph N/A   Overcast
1:36 PM 42.8 °F 35.4 °F 35.6 °F 76% 29.54 in 10.0 mi SE 15.0 mph 21.9 mph N/A   Overcast
1:56 PM 42.8 °F 35.1 °F 35.6 °F 76% 29.55 in 10.0 mi SE 16.1 mph - N/A   Overcast
2:16 PM 42.8 °F 35.8 °F 37.4 °F 81% 29.56 in 10.0 mi SE 13.8 mph 19.6 mph N/A   Overcast
2:36 PM 42.8 °F 35.1 °F 35.6 °F 76% 29.56 in 10.0 mi SE 16.1 mph 21.9 mph N/A   Mostly Cloudy
2:56 PM 42.8 °F 35.8 °F 37.4 °F 81% 29.58 in 10.0 mi SE 13.8 mph - N/A   Mostly Cloudy
3:16 PM 44.6 °F 37.8 °F 37.4 °F 76% 29.59 in 10.0 mi SSE 15.0 mph 19.6 mph N/A   Mostly Cloudy
3:36 PM 44.6 °F 38.8 °F 37.4 °F 76% 29.60 in 10.0 mi SE 11.5 mph - N/A   Mostly Cloudy
3:56 PM 42.8 °F 37.0 °F 35.6 °F 76% 29.61 in 10.0 mi SSE 10.4 mph - N/A   Overcast
4:16 PM 42.8 °F 37.0 °F 35.6 °F 76% 29.62 in 10.0 mi SSE 10.4 mph - N/A   Overcast
4:36 PM 42.8 °F 37.0 °F 35.6 °F 76% 29.63 in 10.0 mi SE 10.4 mph - N/A   Overcast
4:56 PM 42.8 °F 34.5 °F 35.6 °F 76% 29.63 in 10.0 mi SE 18.4 mph - N/A   Mostly Cloudy
5:16 PM 42.8 °F 36.2 °F 35.6 °F 76% 29.64 in 10.0 mi SE 12.7 mph 21.9 mph N/A   Overcast
5:36 PM 42.8 °F 36.2 °F 33.8 °F 70% 29.67 in 10.0 mi SSE 12.7 mph 21.9 mph N/A   Overcast
5:56 PM 41.0 °F 35.8 °F 33.8 °F 76% 29.69 in 10.0 mi South 8.1 mph - N/A   Overcast
6:16 PM 41.0 °F 35.2 °F 33.8 °F 76% 29.70 in 10.0 mi WSW 9.2 mph - N/A   Overcast
6:36 PM 39.2 °F 35.9 °F 35.6 °F 87% 29.72 in 10.0 mi SW 4.6 mph - N/A   Overcast
6:56 PM 39.2 °F 35.0 °F 35.6 °F 87% 29.73 in 10.0 mi SW 5.8 mph - N/A   Overcast
7:16 PM 39.2 °F 37.0 °F 33.8 °F 81% 29.75 in 10.0 mi South 3.5 mph - N/A   Overcast
7:36 PM 39.2 °F - 33.8 °F 81% 29.76 in 10.0 mi Calm Calm - N/A   Overcast
7:56 PM 39.2 °F 37.0 °F 33.8 °F 81% 29.77 in 10.0 mi South 3.5 mph - N/A   Overcast
8:16 PM 37.4 °F - 33.8 °F 87% 29.77 in 10.0 mi Calm Calm - N/A   Overcast
8:36 PM 37.4 °F 32.8 °F 32.0 °F 81% 29.79 in 10.0 mi WSW 5.8 mph - N/A   Overcast
8:56 PM 37.4 °F 33.8 °F 32.0 °F 81% 29.80 in 10.0 mi SW 4.6 mph - N/A   Mostly Cloudy
9:16 PM 37.4 °F - 32.0 °F 81% 29.81 in 10.0 mi Calm Calm - N/A   Overcast
9:36 PM 35.6 °F 32.8 °F 33.8 °F 93% 29.81 in 10.0 mi NE 3.5 mph - N/A   Overcast
9:56 PM 35.6 °F - 30.2 °F 81% 29.82 in 10.0 mi Calm Calm - N/A   Overcast
10:16 PM 35.6 °F - 33.8 °F 93% 29.83 in 10.0 mi Calm Calm - N/A   Overcast
10:36 PM 33.8 °F 29.6 °F 33.8 °F 100% 29.84 in 10.0 mi NW 4.6 mph - N/A   Overcast
10:56 PM 35.6 °F 32.8 °F 32.0 °F 87% 29.84 in 10.0 mi NNW 3.5 mph - N/A   Overcast
11:16 PM 33.8 °F 30.8 °F 32.0 °F 93% 29.86 in 10.0 mi WSW 3.5 mph - N/A   Overcast
11:36 PM 35.6 °F - 30.2 °F 81% 29.86 in 10.0 mi Calm Calm - N/A   Overcast
11:56 PM 35.6 °F 31.7 °F 30.2 °F 81% 29.86 in 10.0 mi East 4.6 mph - N/A   Overcast